FW0683 Weather Reports


Display with metric or nautical units.
time (UTC)temp
F
wind
direction
speed
MPH
gust
MPH
rain 1hr
in
rain 24hr
in
rain mn
in
humidity
%
barometer
mb
20260503190017 54 263 0.0 2.0 0.00 0.10 0.02 47 1009.3
20260503184520 53 39 0.0 8.0 0.00 0.10 0.02 48 1009.2
20260503183011 52 326 0.0 12.0 0.00 0.10 0.02 50 1009.4
20260503181510 51 238 0.0 6.0 0.00 0.10 0.02 55 1009.4
20260503180010 51 311 1.0 9.0 0.00 0.10 0.02 54 1009.3
20260503174508 51 10 0.0 3.0 0.00 0.10 0.02 52 1009.3
20260503173007 51 221 0.0 8.0 0.00 0.10 0.02 57 1009.3
20260503171502 49 259 0.0 3.0 0.00 0.10 0.02 64 1009.3
20260503081525 41 324 0.0 0.0 0.00 0.20 0.01 95 1011.8
20260503071523 41 324 0.0 0.0 0.00 0.20 0.01 95 1012.4
20260503054603 43 66 0.0 0.0 0.00 0.20 0.01 95 1013.2
20260503053057 44 66 0.0 0.0 0.01 0.20 0.01 95 1013.2
20260503051555 44 65 0.0 0.0 0.01 0.20 0.01 95 1013.5
20260503050054 44 66 0.0 0.0 0.01 0.20 0.01 95 1013.8
20260503044555 44 65 0.0 0.0 0.01 0.20 0.01 95 1014.1
20260503043054 44 65 0.0 0.0 0.00 0.19 0.00 95 1014.2
20260503041551 44 75 0.0 0.0 0.00 0.19 0.00 94 1014.4
20260503040047 44 75 0.0 0.0 0.00 0.19 0.00 94 1014.6
20260503034548 44 75 0.0 0.0 0.00 0.19 0.19 94 1014.5
20260503033046 44 75 0.0 0.0 0.00 0.19 0.19 94 1014.3
20260503031556 44 75 0.0 0.0 0.00 0.19 0.19 94 1014.3
20260503030048 44 113 0.0 0.0 0.00 0.19 0.19 94 1014.3
20260503024547 44 113 0.0 0.0 0.00 0.19 0.19 94 1014.4
20260503023044 44 113 0.0 0.0 0.00 0.19 0.19 94 1014.5
20260503021548 44 113 0.0 0.0 0.00 0.19 0.19 94 1014.6
20260503020055 45 113 0.0 0.0 0.00 0.19 0.19 93 1014.8
20260503014549 45 113 0.0 0.0 0.00 0.19 0.19 94 1014.8
20260503013044 45 113 0.0 0.0 0.00 0.19 0.19 93 1015.0
20260503011548 46 113 0.0 0.0 0.00 0.19 0.19 93 1014.9
20260503010042 46 113 0.0 0.0 0.00 0.19 0.19 93 1015.1
20260503004541 46 113 0.0 0.0 0.00 0.19 0.19 93 1014.9
20260503003041 46 113 0.0 0.0 0.00 0.19 0.19 93 1014.9
20260503001541 46 113 0.0 0.0 0.00 0.19 0.19 92 1014.8
20260503000057 47 113 0.0 0.0 0.00 0.19 0.19 92 1014.7
20260502234540 47 113 0.0 0.0 0.01 0.19 0.19 92 1014.6
20260502233039 47 113 0.0 0.0 0.02 0.19 0.19 91 1014.5
20260502231549 48 116 0.0 0.0 0.06 0.19 0.19 91 1014.3
20260502230038 48 116 0.0 0.0 0.08 0.19 0.19 91 1014.3
20260502224538 48 116 0.0 0.0 0.07 0.18 0.18 90 1014.5
20260502223038 48 116 0.0 0.0 0.06 0.17 0.17 88 1014.6
20260502221538 49 116 0.0 0.0 0.02 0.13 0.13 86 1014.6
20260502220046 49 116 0.0 0.0 0.00 0.11 0.11 83 1014.2
20260502214536 50 100 0.0 0.0 0.00 0.11 0.11 82 1014.3
20260502213035 50 348 0.0 0.0 0.00 0.11 0.11 82 1014.2
20260502211535 50 17 0.0 0.0 0.00 0.11 0.11 81 1014.4
20260502210035 51 79 0.0 0.0 0.00 0.11 0.11 81 1014.3
20260502204534 51 283 0.0 0.0 0.00 0.11 0.11 81 1014.3
20260502203033 50 319 0.0 0.0 0.00 0.11 0.11 81 1014.2
20260502201535 51 356 0.0 0.0 0.00 0.11 0.11 79 1014.2
20260502200033 52 310 0.0 0.0 0.00 0.11 0.11 76 1014.3
20260502194532 53 323 0.0 0.0 0.00 0.11 0.11 73 1014.3
20260502193032 52 230 0.0 1.0 0.00 0.11 0.11 71 1014.3
20260502191533 52 110 0.0 0.0 0.00 0.11 0.11 70 1014.4